Location: *
(32.3300°N, 34.8500°E)
Time: 16:58:42
(UTC+00:00)

Cosmos 2237 Rocket - Pass Details

Date: 22 October 2019
Orbit: 833 x 851 km, 71.0° (Epoch: 17 November)

Event Time Altitude Azimuth Distance (km) Brightness Sun altitude
Exits shadow 02:33:46 14° 319° (NW) 2,208 4.0 -16.6°
Drops below altitude 10° 02:35:34 10° 337° (NNW) 2,477 4.4 -16.2°
Sets 02:39:13 0° 1° (N) 3,418 5.3 -15.5°
